[[{"header":{"parameterUnit":"m.s-1","parameterCategory":1,"la1":30.2991,"la2":30.254,"lo1":-89.0895,"lo2":-89.0444,"dx":0.0017,"dy":0.0017,"nx":28,"ny":28,"refTime":"2023-01-21T15:00:00:Z","depth":0,"parameterNumber":2,"parameterNumberName":"U-component_of_WINDS"},"data":[0,0,0,0,0,0,0,0,0,0,0,0,0,0,0,0,0,0,0,0,0,0,0,0,0,0,0,0,0,0,0,0,0,0,0,0,0,0,0,0,0,0,0,0,0,0,0,0,0,0,0,0,0,0,0,0,0,0,-6.7432,-6.7432,0,-6.7464,-6.7464,-6.7465,-6.7303,-6.7298,-6.7294,-6.7289,-6.7324,-6.7329,-6.7334,0,0,0,0,0,0,0,0,0,0,0,0,0,-6.7232,-6.7236,-6.7432,-6.7432,-6.7432,-6.7464,-6.7464,-6.7465,-6.7304,-6.7298,-6.7293,-6.7287,-6.7322,-6.7328,-6.7335,0,0,0,0,0,0,0,0,0,0,0,0,0,-6.7297,-6.7238,-6.7431,-6.7356,-6.7349,-6.7464,-6.7464,-6.7465,-6.7305,-6.7298,-6.7291,-6.7285,-6.732,-6.7328,-6.7336,-6.7524,0,0,-6.736,-6.7363,0,0,0,0,0,0,0,0,-6.7294,-6.7305,-6.7367,-6.7361,-6.7354,-6.7372,-6.7406,-6.7485,-6.7307,-6.7322,-6.7289,-6.7281,-6.7346,-6.7351,-6.7372,-6.7526,-6.7527,-6.736,-6.7365,-6.7369,-6.7371,0,0,0,0,0,0,0,-6.7289,-6.7302,-6.7444,-6.7368,-6.736,-6.7321,-6.7322,-6.7421,-6.7373,-6.732,-6.7309,-6.7315,-6.7341,-6.7365,-6.7372,-6.7528,-6.736,-6.7367,-6.7372,-6.7375,-6.7838,-6.7846,0,0,0,0,0,0,-6.7295,-6.73,-6.7443,-6.7445,-6.7306,-6.733,-6.7332,-6.7374,-6.7371,-6.7364,-6.732,-6.7307,-6.7355,-6.7363,-6.7373,-6.7593,-6.7368,-6.7376,-6.738,-6.7831,-6.784,-6.7848,0,0,0,0,0,0,-6.7291,-6.7309,-6.7442,-6.7369,-6.7383,-6.7341,-6.7389,-6.7378,-6.7402,-6.7371,-6.7362,-6.7354,-6.735,-6.7362,-6.7488,-6.7592,-6.7379,-6.7387,-6.7822,-6.7834,-6.7844,-6.8037,0,0,0,0,0,0,-6.7286,-6.7309,-6.7379,-6.7372,-6.7388,-6.7557,-6.7396,-6.7384,-6.7416,-6.7398,-6.74,-6.7394,-6.7345,-6.7477,-6.7496,-6.7599,-6.7393,-6.7812,-6.7827,-6.7841,-6.8021,-6.8053,-6.8081,0,0,0,0,0,-6.7279,-6.7432,-6.7384,-6.7402,-6.7475,-6.7563,-6.7572,-6.7512,-6.7425,-6.7496,-6.7477,-6.7394,-6.7578,-6.7491,-6.7511,-6.7619,-6.7805,-6.7823,-6.784,-6.8007,-6.8047,-6.808,0,0,0,0,0,0,-6.7453,-6.743,-6.7376,-6.7531,-6.755,-6.7535,-6.7623,-6.7556,-6.76,-6.7582,-6.7507,-6.7509,-6.7648,-6.7646,-6.755,-6.7801,-6.7677,-6.7699,-6.7797,-6.7835,-6.7864,-6.7861,-6.7399,0,0,0,0,0,-6.751,-6.7582,-6.7558,-6.7698,-6.771,-6.7666,-6.7701,-6.7654,-6.7671,-6.7678,-6.7668,-6.7688,-6.775,-6.7792,-6.7848,-6.802,-6.8018,-6.8104,-6.8134,-6.8159,-6.8178,-6.8269,-6.8307,-6.7904,-6.7904,-6.7904,0,0,-6.7627,-6.7623,-6.7673,-6.7733,-6.7741,-6.7819,-6.7673,-6.7761,-6.7818,-6.7691,-6.7809,-6.7804,-6.7821,-6.7971,-6.8037,-6.7973,-6.829,-6.8181,-6.8201,-6.8206,-6.8291,-6.8329,-6.8363,-6.7916,-6.7914,-6.7912,0,0,-6.7879,-6.7884,-6.8,-6.8013,-6.8029,-6.7998,-6.8027,-6.8023,-6.8014,-6.8131,-6.8039,-6.8105,-6.8214,-6.823,-6.8253,-6.8514,-6.844,-6.8535,-6.8691,-6.8781,-6.8812,-6.884,-6.8932,-6.8967,-6.8554,-6.8555,-6.8555,0,-6.8022,-6.8134,-6.8069,-6.8163,-6.8192,-6.8082,-6.82,-6.8215,-6.8249,-6.8272,-6.8201,-6.8335,-6.8339,-6.8491,-6.8555,-6.8578,-6.8608,-6.8533,-6.8813,-6.884,-6.8865,-6.8952,-6.8987,-6.8566,-6.8565,-6.8564,-6.8562,0,-6.831,-6.8389,-6.8482,-6.8517,-6.8556,-6.8662,-6.8613,-6.8661,-6.8612,-6.8589,-6.8711,-6.8712,-6.8766,-6.8799,-6.8751,-6.8946,-6.8906,-6.8826,-6.8698,-6.8916,-6.8996,-6.903,-6.8582,-6.8578,-6.8575,-6.8572,0,0,-6.867,-6.8669,-6.8704,-6.8718,-6.8729,-6.8789,-6.8891,-6.8944,-6.8986,-6.9014,-6.9097,-6.9193,-6.9119,-6.9145,-6.9098,-6.9177,-6.9383,-6.9086,-6.9086,-6.9141,-6.9597,-6.9656,-6.9696,-6.9335,-6.9341,-6.9346,-6.9595,0,-6.8916,-6.9088,-6.9033,-6.9207,-6.928,-6.9178,-6.9266,-6.9283,-6.9266,-6.9325,-6.9306,-6.9374,-6.9272,-6.9287,-6.936,-6.9343,-6.9474,-6.9324,-6.9411,-6.9415,-6.9408,-6.9738,-6.98,-7.0035,-6.9626,-6.9631,-6.9635,0,-6.9225,-6.9265,-6.9447,-6.9446,-6.9475,-6.9555,-6.9599,-6.9658,-6.9675,-6.9657,-6.9687,-6.9624,-6.9724,-6.9599,-6.9735,-6.9635,-6.9668,-6.9665,-6.9673,-6.9677,-6.9537,-6.975,-7.0109,-7.0143,-6.9685,-6.9681,-6.9677,0,-6.9468,-6.9568,-6.9689,-6.9706,-6.9708,-6.9767,-6.9771,-6.9781,-6.9817,-6.9856,-6.9878,-6.993,-6.9957,-6.9998,-6.9951,-6.9865,-7.0095,-6.9966,-7.0083,-7.0084,-7.0134,-7.0131,-7.0502,-7.0159,-7.0158,-7.0158,-7.0157,0,-6.9747,-6.9862,-6.9799,-6.9873,-7.0,-6.9936,-7.0063,-7.0055,-7.0066,-7.0138,-7.0054,-7.0123,-7.0057,-7.0121,-7.0086,-7.0204,-7.0218,-7.0205,-7.0194,-7.0212,-7.0213,-7.0231,-7.0212,-7.0167,-7.0165,-7.0163,-7.0161,0,-7.0039,-7.0001,-7.0127,-7.0119,-7.012,-7.0214,-7.0207,-7.0276,-7.0254,-7.0346,-7.0364,-7.0328,-7.0399,-7.0357,-7.0429,-7.0405,-7.0559,-7.0526,-7.0553,-7.0544,-7.0662,-7.0651,-7.1055,-7.1105,-7.0732,-7.0736,-7.0739,0,-7.0218,-7.0305,-7.0307,-7.0349,-7.0358,-7.0427,-7.0463,-7.0406,-7.0447,-7.0474,-7.054,-7.0603,-7.0651,-7.0769,-7.075,-7.0805,-7.0771,-7.091,-7.0779,-7.0794,-7.0772,-7.0767,-7.0775,-7.0935,-7.094,-7.0943,-7.0946,0,-7.0541,-7.0519,-7.0574,-7.0624,-7.0669,-7.0705,-7.0734,-7.0774,-7.0716,-7.0767,-7.0838,-7.0875,-7.0949,-7.1013,-7.106,-7.1064,-7.0996,-7.0988,-7.1017,-7.1035,-7.1046,-7.1041,-7.0623,-7.0978,-7.0975,-7.0972,-7.0971,-7.0969,-7.0781,-7.0852,-7.0866,-7.093,-7.0947,-7.0976,-7.1041,-7.1027,-7.1085,-7.1141,-7.1104,-7.1188,-7.1204,-7.126,-7.1274,-7.1339,-7.1283,-7.1326,-7.1337,-7.1348,-7.1364,-7.1038,-7.1348,-7.1347,-7.1346,-7.1345,-7.1344,0,-7.1097,-7.1101,-7.1162,-7.1206,-7.1257,-7.1189,-7.1219,-7.1266,-7.1341,-7.1362,-7.1411,-7.1494,-7.1556,-7.1543,-7.1599,-7.1654,-7.1624,-7.1671,-7.1665,-7.1667,-7.1411,-7.1379,-7.1694,-7.1694,-7.1694,-7.1694,-7.1694,-7.1693,-7.1268,-7.1386,-7.1366,-7.1491,-7.1494,-7.1576,-7.1598,-7.1626,-7.1642,-7.1738,-7.1789,-7.1781,-7.1788,-7.1845,-7.1899,-7.1894,-7.1918,-7.1976,-7.1959,-7.172,-7.1685,-7.1652,-7.1621,-7.1982,-7.1982,-7.2209,-7.2211,-7.2212]},{"header":{"parameterUnit":"m.s-1","parameterCategory":1,"la1":30.2991,"la2":30.254,"lo1":-89.0895,"lo2":-89.0444,"dx":0.0017,"dy":0.0017,"nx":28,"ny":28,"refTime":"2023-01-21T15:00:00:Z","depth":0,"parameterNumber":3,"parameterNumberName":"V-component_of_WINDS"},"data":[0,0,0,0,0,0,0,0,0,0,0,0,0,0,0,0,0,0,0,0,0,0,0,0,0,0,0,0,0,0,0,0,0,0,0,0,0,0,0,0,0,0,0,0,0,0,0,0,0,0,0,0,0,0,0,0,0,0,-1.2819,-1.2818,0,-1.2747,-1.2746,-1.2745,-1.2689,-1.2688,-1.2688,-1.2687,-1.2614,-1.2613,-1.2611,0,0,0,0,0,0,0,0,0,0,0,0,0,-1.2905,-1.2903,-1.2819,-1.2818,-1.2817,-1.2747,-1.2746,-1.2745,-1.2689,-1.2688,-1.2688,-1.2687,-1.2614,-1.2613,-1.2611,0,0,0,0,0,0,0,0,0,0,0,0,0,-1.2854,-1.2903,-1.2819,-1.278,-1.2776,-1.2747,-1.2746,-1.2745,-1.2689,-1.2688,-1.2687,-1.2687,-1.2615,-1.2613,-1.2611,-1.2614,0,0,-1.2604,-1.2603,0,0,0,0,0,0,0,0,-1.2857,-1.285,-1.2787,-1.2783,-1.2778,-1.2726,-1.2749,-1.2701,-1.2689,-1.2722,-1.2687,-1.2686,-1.2652,-1.2647,-1.2635,-1.2611,-1.2608,-1.2604,-1.2603,-1.2602,-1.2601,0,0,0,0,0,0,0,-1.286,-1.2853,-1.279,-1.2786,-1.2781,-1.2766,-1.2758,-1.274,-1.2693,-1.2719,-1.2715,-1.2707,-1.2649,-1.2637,-1.2633,-1.2606,-1.2604,-1.2602,-1.2601,-1.26,-1.2576,-1.2577,0,0,0,0,0,0,-1.287,-1.2857,-1.2792,-1.2788,-1.2816,-1.2765,-1.2756,-1.2744,-1.2693,-1.2684,-1.2708,-1.2705,-1.2641,-1.2635,-1.263,-1.2628,-1.2602,-1.26,-1.2599,-1.2576,-1.2577,-1.2577,0,0,0,0,0,0,-1.2872,-1.2865,-1.2795,-1.2821,-1.2811,-1.2764,-1.2751,-1.2743,-1.273,-1.2684,-1.2675,-1.2704,-1.264,-1.2633,-1.2617,-1.2624,-1.2599,-1.2597,-1.2575,-1.2576,-1.2577,-1.2625,0,0,0,0,0,0,-1.2875,-1.2866,-1.2867,-1.2822,-1.281,-1.2785,-1.2752,-1.2742,-1.2727,-1.2722,-1.2678,-1.267,-1.2639,-1.2621,-1.2615,-1.2621,-1.2595,-1.2574,-1.2575,-1.2577,-1.2623,-1.2627,-1.2632,0,0,0,0,0,-1.2878,-1.2885,-1.2868,-1.286,-1.2811,-1.2786,-1.2779,-1.2743,-1.2728,-1.2728,-1.2698,-1.2672,-1.2625,-1.262,-1.2613,-1.2618,-1.2574,-1.2575,-1.2577,-1.262,-1.2626,-1.2632,0,0,0,0,0,0,-1.2934,-1.2878,-1.2859,-1.2851,-1.2823,-1.2776,-1.2776,-1.2751,-1.2727,-1.2724,-1.268,-1.267,-1.2659,-1.2637,-1.2632,-1.2616,-1.2596,-1.2596,-1.2631,-1.2637,-1.2641,-1.2646,-1.2593,0,0,0,0,0,-1.2945,-1.2929,-1.2881,-1.2879,-1.2866,-1.2823,-1.2811,-1.2785,-1.2755,-1.2743,-1.2711,-1.2683,-1.266,-1.2648,-1.2625,-1.2619,-1.2607,-1.2619,-1.2623,-1.2627,-1.2628,-1.2619,-1.2623,-1.2582,-1.2582,-1.2582,0,0,-1.2968,-1.2936,-1.2929,-1.2889,-1.2865,-1.2848,-1.2814,-1.2799,-1.2786,-1.2741,-1.2723,-1.2699,-1.2663,-1.2651,-1.2645,-1.2633,-1.2636,-1.2629,-1.2633,-1.2631,-1.2621,-1.2625,-1.2629,-1.2583,-1.2583,-1.2583,0,0,-1.3002,-1.2977,-1.2971,-1.2946,-1.2909,-1.288,-1.2878,-1.2834,-1.2816,-1.2797,-1.2762,-1.2745,-1.271,-1.2685,-1.2667,-1.2688,-1.2662,-1.2682,-1.2706,-1.2698,-1.2701,-1.2703,-1.2708,-1.2711,-1.2682,-1.2682,-1.2683,0,-1.3036,-1.301,-1.2971,-1.2957,-1.2939,-1.2896,-1.2888,-1.2866,-1.2824,-1.2812,-1.2799,-1.2751,-1.2725,-1.2704,-1.2709,-1.2697,-1.2692,-1.2687,-1.2704,-1.2706,-1.2708,-1.2712,-1.2714,-1.2685,-1.2685,-1.2684,-1.2684,0,-1.3052,-1.3035,-1.3034,-1.2992,-1.2975,-1.2964,-1.2922,-1.2908,-1.2883,-1.2855,-1.2835,-1.2801,-1.2769,-1.2763,-1.2739,-1.2738,-1.2732,-1.2712,-1.269,-1.2715,-1.2718,-1.2719,-1.2689,-1.2688,-1.2687,-1.2686,0,0,-1.3121,-1.3055,-1.3056,-1.3035,-1.2989,-1.2974,-1.296,-1.2928,-1.2917,-1.2888,-1.2874,-1.2843,-1.2823,-1.2803,-1.2776,-1.2769,-1.2783,-1.2749,-1.2748,-1.2755,-1.2777,-1.2792,-1.2794,-1.2766,-1.2766,-1.2766,-1.2779,0,-1.3146,-1.3119,-1.3081,-1.3066,-1.3048,-1.3005,-1.2992,-1.2962,-1.2934,-1.2914,-1.2883,-1.2861,-1.2838,-1.2825,-1.2817,-1.2784,-1.2787,-1.2782,-1.2751,-1.275,-1.276,-1.2796,-1.2812,-1.2826,-1.2781,-1.2781,-1.2781,0,-1.3172,-1.3144,-1.3127,-1.308,-1.307,-1.306,-1.3026,-1.3007,-1.2971,-1.2951,-1.2927,-1.2897,-1.2877,-1.2858,-1.2829,-1.2827,-1.2811,-1.2793,-1.2792,-1.2788,-1.2767,-1.2791,-1.283,-1.2832,-1.2783,-1.2783,-1.2783,0,-1.3221,-1.318,-1.3163,-1.3147,-1.3092,-1.3084,-1.3061,-1.3024,-1.3006,-1.2976,-1.2963,-1.2932,-1.2914,-1.289,-1.2851,-1.284,-1.2825,-1.2803,-1.2807,-1.2808,-1.2806,-1.2806,-1.2842,-1.2798,-1.2798,-1.2798,-1.2798,0,-1.3253,-1.3243,-1.3184,-1.3174,-1.3161,-1.3117,-1.3105,-1.3077,-1.3044,-1.3026,-1.2987,-1.2971,-1.2921,-1.2899,-1.2868,-1.2847,-1.284,-1.2822,-1.2814,-1.2825,-1.2827,-1.2814,-1.2811,-1.2798,-1.2798,-1.2798,-1.2798,0,-1.3306,-1.3266,-1.3244,-1.3193,-1.3179,-1.3172,-1.3127,-1.3114,-1.3084,-1.3061,-1.3053,-1.3005,-1.2976,-1.2934,-1.2893,-1.2872,-1.2855,-1.2843,-1.2868,-1.2863,-1.2868,-1.2867,-1.2895,-1.2896,-1.2853,-1.2854,-1.2854,0,-1.3328,-1.3319,-1.3266,-1.3251,-1.3229,-1.3206,-1.3187,-1.3142,-1.3124,-1.3079,-1.3072,-1.3039,-1.3011,-1.2967,-1.2927,-1.2894,-1.288,-1.2891,-1.2875,-1.2885,-1.2877,-1.2878,-1.2876,-1.2896,-1.2896,-1.2897,-1.2897,0,-1.3371,-1.335,-1.3325,-1.3291,-1.3269,-1.3241,-1.3211,-1.3201,-1.3149,-1.313,-1.3099,-1.3077,-1.3034,-1.3001,-1.2963,-1.2937,-1.2908,-1.2903,-1.2901,-1.2913,-1.2926,-1.2917,-1.2877,-1.2903,-1.2902,-1.2902,-1.2901,-1.2901,-1.3407,-1.3397,-1.3357,-1.3328,-1.3301,-1.3272,-1.3257,-1.3223,-1.3197,-1.3158,-1.3133,-1.3103,-1.3063,-1.3008,-1.2983,-1.2958,-1.2946,-1.2945,-1.2944,-1.2944,-1.2947,-1.2931,-1.2951,-1.2951,-1.295,-1.295,-1.295,0,-1.3446,-1.3418,-1.3393,-1.335,-1.3327,-1.3302,-1.3266,-1.3248,-1.3222,-1.3188,-1.316,-1.3123,-1.3091,-1.3047,-1.3011,-1.2999,-1.2984,-1.2991,-1.2991,-1.2985,-1.2961,-1.2965,-1.3003,-1.3003,-1.3003,-1.3003,-1.3003,-1.3003,-1.3464,-1.3444,-1.3418,-1.3382,-1.3354,-1.3324,-1.3305,-1.3278,-1.325,-1.321,-1.3183,-1.3155,-1.3115,-1.3076,-1.3044,-1.3031,-1.3019,-1.3029,-1.3013,-1.2992,-1.2987,-1.2982,-1.2986,-1.3028,-1.3028,-1.3039,-1.3039,-1.3039]}]]